Location: Caltech
(34.1382°N, 118.1253°W)
Time: 17:19:52
(UTC-08:00)

Cosmos 2251 Rocket - Visible Passes

Search period start: 21 December 2014 00:00
Search period end: 31 December 2014 00:00
Orbit: 765 x 794 km, 74.0° (Epoch: 20 December)

Date Brightness Start Highest point End Pass type
(mag) Time Alt. Az. Time Alt. Az. Time Alt. Az.
21 Dec 6.2 06:24:33 10° NE 06:26:39 12° ENE 06:28:46 10° E visible
24 Dec 5.6 06:23:53 10° N 06:28:17 25° ENE 06:32:40 10° ESE visible
25 Dec 6.1 05:51:08 10° NNE 05:54:22 16° ENE 05:57:35 10° E visible
27 Dec 4.4 06:24:26 10° N 06:29:41 53° ENE 06:34:53 10° SSE visible
28 Dec 5.2 05:51:06 10° N 05:55:54 32° ENE 06:00:39 10° SE visible
29 Dec 5.9 05:18:04 10° NNE 05:22:02 21° ENE 05:25:56 10° ESE visible
30 Dec 6.3 04:45:45 10° NNE 04:48:03 13° ENE 04:50:20 10° E visible
30 Dec 3.6 06:25:33 10° NNW 06:30:53 71° WSW 06:36:10 10° S visible
30 Dec 5.5 19:18:37 10° S 19:20:01 19° S 19:20:01 19° S visible
